Flag for Canada Weather past 2 weeks in Saint John, New Brunswick, Canada

Now
61 °F

Sprinkles. Fog.


Feels Like: 61 °F
Forecast: 57 / 69 °F
Wind: 5 mph from Southeast

Location: Saint John

Current Time: Jul 28, 2015 at 10:31:10 AM

Latest Report: Jul 28, 2015 at 10:00 AM


Visibility: 1 mi

Pressure: 29.98 "Hg

Humidity: 100%

Dew point: 61 °F

Location of Saint JohnLocation

Historic Weather in Saint John — Graph

°F

Saint John temperature yesterday

Maximum temperature yesterday: 68 °F (at 2:00 PM)
Minimum temperature yesterday: 57 °F (at 12:00 AM)
Average temperature yesterday: 62 °F

Past Weeks' High & Low Weather Summary

 TemperatureHumidityPressure
High81 °F (Jul 13, 3:00 PM)100% (Jul 14, 9:00 PM)30.11 "Hg (Jul 14, 9:00 PM)
Low41 °F (Jul 17, 5:00 AM)32% (Jul 13, 4:00 PM)29.54 "Hg (Jul 22, 7:00 AM)
Average62 °F84%29.88 "Hg
* Reported Jul 13 9:00 AM — Jul 28 9:00 AM, Saint John, Weather by CustomWeather, © 2015

Note: Actual official high and low records may vary slightly from our data, if they occured in-between our weather recording intervals... More about our weather records

Advertising

Saint John weather history for previous 24 hours

 ConditionsComfort  
Time TempWeatherWind HumidityBarometerVisibility
9:00 AM
Tue, Jul 28
63 °FFog.6 mph100%29.98 "Hg1 mi
8:47 AM61 °FFog.6 mph100%29.98 "Hg1 mi
8:00 AM59 °FFog.5 mph100%29.99 "Hg0 mi
7:00 AM59 °FDrizzle. Fog.5 mph100%29.99 "Hg0 mi
6:00 AM59 °FDrizzle. Fog.3 mph100%29.99 "Hg1 mi
5:00 AM59 °FDrizzle. Fog.7 mph100%29.99 "Hg0 mi
4:00 AM59 °FDrizzle. Fog.6 mph100%30.00 "Hg0 mi
3:00 AM61 °FDrizzle. Fog.6 mph100%30.02 "Hg0 mi
2:00 AM61 °FFog.7 mph100%30.03 "Hg0 mi
1:00 AM61 °FFog.6 mph100%30.04 "Hg1 mi
12:00 AM61 °FFog.7 mph100%30.05 "Hg0 mi
11:00 PM
Mon, Jul 27
61 °FFog.8 mph100%30.05 "Hg0 mi
10:00 PM61 °FFog.7 mph100%30.06 "Hg0 mi
9:00 PM61 °FFog.8 mph100%30.04 "Hg1 mi
8:00 PM63 °FDrizzle. Fog.7 mph100%30.04 "Hg3 mi
7:00 PM63 °FFog.7 mph94%30.04 "Hg4 mi
6:00 PM66 °FMostly cloudy.7 mph88%30.04 "Hg8 mi
5:00 PM64 °FMostly cloudy.8 mph88%30.06 "Hg12 mi
4:00 PM66 °FMostly cloudy.8 mph83%30.06 "Hg15 mi
3:00 PM68 °FMostly cloudy.9 mph78%30.06 "Hg12 mi
2:54 PM68 °FMostly cloudy.10 mph83%30.06 "Hg12 mi
2:00 PM68 °FMore clouds than sun.7 mph78%30.06 "Hg12 mi
1:00 PM64 °FFog.8 mph88%30.08 "Hg5 mi
12:00 PM63 °FFog.8 mph94%30.09 "Hg3 mi
11:00 AM63 °FFog.8 mph94%30.08 "Hg4 mi
10:00 AM63 °FFog.9 mph94%30.08 "Hg4 mi
Weather by CustomWeather, © 2015

See weather overviewHow to use our weather pages